Starlink 3110

operational
NORAD ID: 49420 Int'l Des: 2021-104 Owner: SPXS Country: US Constellation: starlink
LEOCIRCULAR

关于 Starlink 3110

正在加载描述...

实时位置

正在加载3D地球...

即将过境

高度历史

Altitude vs Time

uPlot chart will show altitude changes over time

两行轨道根数

1 49420U 21104N 25256.83989853 .00000609 00000-0 56337-4 0 9993
2 49420 53.2185 303.0322 0001384 87.4469 272.6681 15.08838627211927
Epoch: Sep 13, 2025 • Age: 38 hours

当前状态

高度 542.6 km
速度 7.60 km/s
星下点 40.08°N, 178.26°W
发射日期 Nov 13, 2021
运行时间 3.8 years
类型 internet

技术详情

分类 Payload
质量 290.00 kg
干质量 270.00 kg
总质量 290.00 kg
长度 0.20 m
直径 2.80 m
跨度 9.00 m
形状 Box + pan
制造商 SPXS
平台类型 Starlink
阶段状态 In Orbit
所有者/国家 SPXS/US

大型星座

Loading constellations...